Location: Chuathbaluk
(61.5726°N, 159.2454°W)
Time: 04:29:44
(UTC+00:00)

Transit 4A - Pass Details

Date: 27 November 2020
Orbit: 864 x 980 km, 66.8° (Epoch: 26 January)

Event Time Altitude Azimuth Distance (km) Brightness Sun altitude
Rises 02:38:17 0° 308° (NW) 3,695 11.3 -6.8°
Reaches altitude 10° 02:40:53 10° 306° (NW) 2,743 10.7 -7.1°
Maximum altitude 02:47:15 67° 225° (SW) 1,051 8.5 -7.8°
Drops below altitude 10° 02:53:29 10° 145° (SE) 2,687 10.3 -8.4°
Sets 02:56:01 0° 142° (SE) 3,615 10.9 -8.7°
